Lexington Weather

Lexington, Massachusetts, USA

34°F
4/16/2021 10:21am 
  • Lexington Conditions: Snow, Fog, Overcast
  • Temperature: 34.0°F / 1.1°CColder 0.2°F than last hour.
  • Dew Point: 32.7°FDecreased 0.2°Fsince last hour.
  • Relative Humidity: 95
  • Wind: Calm, 10-min avg: Calm, gust: None
  • Barometer: 29.49 in Steady
  • Visibility: ½ mile
  • Snow Today: 1.3 in
  •   

Regional Weather Roundup
for Boston / Norton, MA

        
000
ASUS41 KBOX 132204
RWRBOX

REGIONAL WEATHER ROUNDUP
NATIONAL WEATHER SERVICE BOSTON/NORTON MA
600 PM EDT TUE APR 13 2021

NOTE:  "FAIR" INDICATES FEW OR NO CLOUDS BELOW 12,000 FEET WITH NO 
SIGNIFICANT WEATHER AND/OR OBSTRUCTIONS TO VISIBILITY.

MAZALL-132300-
EASTERN MASSACHUSETTS
  
CITY           SKY/WX    TMP DP  RH WIND       PRES   REMARKS
BOSTON         MOSUNNY   54  40  59 SE5       30.03S                  
BEVERLY        NOT AVBL                                               
LAWRENCE       SUNNY     62  38  40 E7        30.03S                  
BEDFORD        MOSUNNY   61  40  45 NE7       30.01R                  
BLUE HILL        N/A     55  39  54 VRB7      30.02R                  
NORWOOD        SUNNY     59  39  47 NE8       30.03R                  
MARSHFIELD     SUNNY     54  39  58 NE5       30.03S                  
PLYMOUTH       SUNNY     54  39  57 NE8       30.02S                  
TAUNTON        SUNNY     57  38  48 VRB6      30.02S                  
NEW BEDFORD    SUNNY     56  38  50 NE15G21   30.02R                  
$$

MAZALL-132300-
CAPE COD AND THE ISLANDS
  
CITY           SKY/WX    TMP DP  RH WIND       PRES   REMARKS
FALMOUTH       SUNNY     52  39  62 NE9G18    30.02S                  
HYANNIS        SUNNY     51  41  68 N10       30.00S                  
CHATHAM        SUNNY     50  39  66 NE9       30.02R                  
PROVINCETOWN     N/A     48  42  80 N6        30.03S                  
NANTUCKET      SUNNY     48  41  76 N17       30.00S                  
MARTHAS VNYRD  SUNNY     53  40  61 NE13G23   30.01S                  
$$
 
MAZALL-132300-
CENTRAL AND WESTERN MASSACHUSETTS
  
CITY           SKY/WX    TMP DP  RH WIND       PRES   REMARKS
WORCESTER      MOSUNNY   60  39  45 NE6       30.02R                  
FITCHBURG      PTSUNNY   62  40  44 VRB3      30.01R                  
ORANGE         CLOUDY    63  40  42 VRB5      30.01R                  
SPRINGFIELD    CLOUDY    64  40  41 E6        29.99R                  
WESTFIELD      CLOUDY    64  42  44 E3        29.99R                  
NORTH ADAMS    CLOUDY    63  41  44 SW5       30.00R                  
PITTSFIELD     CLOUDY    61  41  47 NW6       29.99S                  
$$
 
RIZALL-132300-
RHODE ISLAND
  
CITY           SKY/WX    TMP DP  RH WIND       PRES   REMARKS
PROVIDENCE     SUNNY     61  39  44 NE14      30.02R                  
NEWPORT        SUNNY     57  39  51 N12       30.02R                  
BLOCK ISLAND   SUNNY     47  40  76 E13       30.03S                  
SMITHFIELD     SUNNY     59  40  49 NE13      30.02R                  
WESTERLY       SUNNY     52  41  66 SE10      30.01R                  
$$
 
CTZALL-132300-
CONNECTICUT
  
CITY           SKY/WX    TMP DP  RH WIND       PRES   REMARKS
BRADLEY INTL   PTSUNNY   64  40  41 NW3       29.99R                  
HARTFORD       CLOUDY    65  41  41 N5        30.00R                  
BRIDGEPORT     PTSUNNY   57  42  57 SW10      30.01R                  
DANBURY        CLOUDY    65  41  41 NW3       30.01S                  
GROTON         SUNNY     51  42  71 S10       30.02R                  
NEW HAVEN      PTSUNNY   56  44  64 S6        30.02R                  
CHESTER        FAIR      54  39  58 S8        30.03R                  
MERIDEN        CLOUDY    64  40  41 MISG      30.00R                  
WILLIMANTIC    MOSUNNY   62  40  44 NE9       30.02R                  
OXFORD         CLOUDY    61  44  53 N3        30.01R                  
$$

MEZ002-015-021-024-NHZ003-005-008-011-012-014-VTZ005-008-132300-
NORTHERN NEW ENGLAND
  
CITY           SKY/WX    TMP DP  RH WIND       PRES   REMARKS
PORTLAND ME    CLOUDY    55  41  59 S9        30.01R                  
BANGOR ME      MOSUNNY   60  36  40 NE15      30.00S                  
CONCORD NH     CLOUDY    63  39  41 NE3       30.00S                  
MANCHESTER NH  MOSUNNY   63  39  41 SE7       29.99R                  
NASHUA NH      PTSUNNY   62  41  46 SE10      30.01R                  
PORTSMOUTH NH  PTSUNNY   60  36  41 E8        30.02R                  
JAFFREY NH     CLOUDY    61  40  45 CALM      30.01R                  
KEENE NH       CLOUDY    63  42  46 E3        30.00R                  
BURLINGTON VT  PTSUNNY   66  40  38 N13       30.00S                  
MT. WASHINGTON NOT AVBL                                               
$$

NYZ052-076-132300-
EASTERN NEW YORK
  
CITY           SKY/WX    TMP DP  RH WIND       PRES   REMARKS
ALBANY         PTSUNNY   62  41  46 CALM      30.01R                  
NEW YORK CITY  MOSUNNY   64  39  39 NW8       30.01S                  
$$
 
ANZALL-132300-
MARINE OBSERVATIONS
  
STATION/POSITION TIME  TEMP    WIND        PRES    VSBY  WAVE
                       AIR SEA DIR/SP/G                  HT/PER
                 (UTC) (F)     (DEG/KT/KT) (MB)    (MI)  (FT/S)
BOSTON BUOY      2140   47 46  200/  2/  4 1017.4R
BUZZARDS BAY     2100           60/ 14/ 14 1017.4S
NANTUCKET SOUND  2140      47                N/A
MASS BAY-STELLWA 2104   52      20/  2/  2 1015.8S  1 7/8  4/ 8
ISLE OF SHOALS   2100   49     200/  7/  7 1016.0R
S OF BLOCK IS    2126      44                N/A           4/ 8
$$

......................KEY.........................
  SKY/WX - SKY CONDITION/PRESENT WEATHER
  TMP    - TEMPERATURE IN FAHRENHEIT
  DWPT   - DEWPOINT IN FAHRENHEIT
  RH     - RELATIVE HUMIDITY IN PERCENT
  WIND   - DIRECTION AND SPEED IN MPH
  PRES   - MEAN SEA LEVEL PRESSURE IN INCHES OF HG
  WCI    - WIND CHILL INDEX
  VSB    - VISIBILITY IN MILES
  HX     - HEAT INDEX
  TC     - TEMPERATURE IN CELSIUS
  VRB    - VARIABLE WIND DIRECTION
  N/A    - NOT AVAILABLE
  
      

Other recent Regional Weather Roundups

Fri Apr 16, 10:05am

Fri Apr 16, 9:04am

Fri Apr 16, 8:04am

Fri Apr 16, 7:04am

Fri Apr 16, 6:04am

Fri Apr 16, 5:04am

Fri Apr 16, 4:04am

Fri Apr 16, 3:04am

Fri Apr 16, 2:04am

Fri Apr 16, 1:04am

Fri Apr 16, 12:04am

Thu Apr 15, 11:05pm

Thu Apr 15, 10:04pm

Thu Apr 15, 9:04pm

Thu Apr 15, 8:04pm

Thu Apr 15, 7:05pm

Thu Apr 15, 6:04pm

Thu Apr 15, 5:05pm

Thu Apr 15, 4:04pm

Thu Apr 15, 3:05pm

Thu Apr 15, 2:04pm

Thu Apr 15, 1:05pm

Thu Apr 15, 12:04pm

Thu Apr 15, 11:04am

Thu Apr 15, 10:05am

Thu Apr 15, 9:04am

Thu Apr 15, 8:04am

Thu Apr 15, 7:04am

Thu Apr 15, 6:04am

Thu Apr 15, 5:04am

Thu Apr 15, 4:04am

Thu Apr 15, 3:04am

Thu Apr 15, 2:04am

Thu Apr 15, 1:04am

Thu Apr 15, 12:04am

Wed Apr 14, 11:04pm

Wed Apr 14, 10:04pm

Wed Apr 14, 9:04pm

Wed Apr 14, 8:04pm

Wed Apr 14, 7:04pm

Wed Apr 14, 6:04pm

Wed Apr 14, 5:05pm

Wed Apr 14, 4:04pm

Wed Apr 14, 3:05pm

Wed Apr 14, 2:04pm

Wed Apr 14, 1:05pm

Wed Apr 14, 12:04pm

Wed Apr 14, 11:04am

Wed Apr 14, 10:04am

Wed Apr 14, 9:04am

Wed Apr 14, 8:04am

Wed Apr 14, 7:04am

Wed Apr 14, 6:04am

Wed Apr 14, 5:04am

Wed Apr 14, 4:04am

Wed Apr 14, 3:04am

Wed Apr 14, 2:04am

Wed Apr 14, 1:04am

Wed Apr 14, 12:04am

Tue Apr 13, 11:04pm

Tue Apr 13, 10:05pm

Tue Apr 13, 9:05pm

Tue Apr 13, 8:05pm

Tue Apr 13, 7:04pm

Tue Apr 13, 5:05pm

Tue Apr 13, 4:04pm

Tue Apr 13, 3:04pm

Tue Apr 13, 2:05pm

Tue Apr 13, 1:04pm

Tue Apr 13, 12:05pm

Tue Apr 13, 11:05am

Tue Apr 13, 10:04am

Tue Apr 13, 9:04am

Tue Apr 13, 8:04am

Tue Apr 13, 7:04am

Tue Apr 13, 6:04am

Tue Apr 13, 5:04am

Tue Apr 13, 4:04am

Tue Apr 13, 3:04am

Tue Apr 13, 2:04am

Tue Apr 13, 1:04am

Tue Apr 13, 12:05am

Mon Apr 12, 11:04pm

Mon Apr 12, 10:04pm

Mon Apr 12, 9:04pm

Mon Apr 12, 8:04pm

Mon Apr 12, 7:05pm

Mon Apr 12, 6:04pm

Mon Apr 12, 5:04pm

Mon Apr 12, 4:04pm

Mon Apr 12, 3:05pm

Mon Apr 12, 2:04pm

Mon Apr 12, 1:05pm

Mon Apr 12, 12:04pm

Mon Apr 12, 11:04am

Mon Apr 12, 10:04am

Mon Apr 12, 9:04am

Mon Apr 12, 8:04am

Mon Apr 12, 7:04am

Mon Apr 12, 6:04am

Mon Apr 12, 5:04am

Mon Apr 12, 4:04am

Mon Apr 12, 3:04am

Mon Apr 12, 2:04am

Mon Apr 12, 1:05am

Mon Apr 12, 12:04am

Sun Apr 11, 11:04pm

Sun Apr 11, 10:04pm

Sun Apr 11, 9:04pm

Sun Apr 11, 8:04pm

Sun Apr 11, 7:04pm

Sun Apr 11, 6:05pm

Sun Apr 11, 5:05pm

Sun Apr 11, 4:04pm

Sun Apr 11, 3:05pm

Sun Apr 11, 2:05pm

Sun Apr 11, 1:05pm

Sun Apr 11, 12:04pm

Sun Apr 11, 11:05am

Sun Apr 11, 10:05am

Sun Apr 11, 9:04am

Sun Apr 11, 8:04am

Sun Apr 11, 7:04am

Sun Apr 11, 6:04am

Sun Apr 11, 5:04am

Sun Apr 11, 4:04am

Sun Apr 11, 3:04am

Sun Apr 11, 2:04am

Sun Apr 11, 1:05am

Sun Apr 11, 12:04am

Sat Apr 10, 11:05pm

Sat Apr 10, 10:04pm

Sat Apr 10, 9:04pm

Sat Apr 10, 8:04pm

Sat Apr 10, 7:05pm

Sat Apr 10, 6:04pm

Sat Apr 10, 5:04pm

Sat Apr 10, 4:04pm

Sat Apr 10, 3:04pm

Sat Apr 10, 2:05pm

Sat Apr 10, 1:04pm

Sat Apr 10, 12:04pm

Sat Apr 10, 11:04am

Sat Apr 10, 10:04am

Sat Apr 10, 9:04am

Sat Apr 10, 8:04am

Sat Apr 10, 7:04am

Sat Apr 10, 6:04am

Sat Apr 10, 5:04am

Sat Apr 10, 4:04am

Sat Apr 10, 3:04am

Sat Apr 10, 2:04am

Sat Apr 10, 1:05am

Sat Apr 10, 12:04am

Fri Apr 9, 11:04pm

Fri Apr 9, 10:05pm

Fri Apr 9, 9:04pm

Fri Apr 9, 8:05pm

Fri Apr 9, 7:05pm

Fri Apr 9, 6:04pm

Fri Apr 9, 5:04pm

Fri Apr 9, 4:05pm

Fri Apr 9, 3:05pm

Fri Apr 9, 2:04pm

Fri Apr 9, 1:04pm

Fri Apr 9, 12:04pm

Fri Apr 9, 11:05am

Meta data:

ID: 973640fb-3211-4531-8279-8e86a29e9996
Link: https://api.weather.gov/products/973640fb-3211-4531-8279-8e86a29e9996